Location: Santiago
(33.4378°S, 70.6505°W)
Time: 09:29:34
(UTC+00:00)

ISS - Pass Details

Date: 07 October 2024
Orbit: 412 x 424 km, 51.6° (Epoch: 09 October)

Event Time Altitude Azimuth Distance (km) Brightness Sun altitude
Exits shadow 07:52:51 11° 172° (S) 1,472 -0.6 -28.1°
Maximum altitude 07:53:56 12° 152° (SSE) 1,396 -0.5 -27.9°
Drops below altitude 10° 07:55:25 10° 126° (SE) 1,522 0.0 -27.7°
Sets 07:58:35 0° 94° (E) 2,377 1.1 -27.1°
